Stations météo

Publicité
Chambery/Aix-Les-Bains, France (7491): Température de l'air & dewpoint: 19.06.2017 19:00:00 - 25.06.2017 19:00:00 (CEST)Chambery/Aix-Les-Bains, France (7491): Température de l'air 5cm: 19.06.2017 19:00:00 - 25.06.2017 19:00:00 (CEST)Chambery/Aix-Les-Bains, France (7491): Température de l'air -20cm & Température de l'air -100cm: 19.06.2017 19:00:00 - 25.06.2017 19:00:00 (CEST)Chambery/Aix-Les-Bains, France (7491): Vitesse du vent & gusts: 19.06.2017 19:00:00 - 25.06.2017 19:00:00 (CEST)Chambery/Aix-Les-Bains, France (7491): Direction du vent: 19.06.2017 19:00:00 - 25.06.2017 19:00:00 (CEST)Chambery/Aix-Les-Bains, France (7491): reduced air pressure: 19.06.2017 19:00:00 - 25.06.2017 19:00:00 (CEST)Chambery/Aix-Les-Bains, France (7491): visibility: 19.06.2017 19:00:00 - 25.06.2017 19:00:00 (CEST)Chambery/Aix-Les-Bains, France (7491): Ensoleillement: 19.06.2017 19:00:00 - 25.06.2017 19:00:00 (CEST)Chambery/Aix-Les-Bains, France (7491): Quantités de précipitations: 19.06.2017 19:00:00 - 25.06.2017 19:00:00 (CEST)
Date & Time tt [°C] td [°C] tt 5cm [°C] tt -20cm [°C] tt -100cm [°C] ff [km/h] ff [knt] fx [km/h] fx [knt] dd ppp [hPa] vv [km] sd [min] rr [mm]
25.06.2017 19:00:00 28,0 13,9 33,2 23,1 18,5 8 4 16 9 N 1014,1 20 60 0,0
25.06.2017 18:00:00 27,9 14,2 34,5 23,0 18,6 12 6 19 11 N 1014,4 19 60 0,0
25.06.2017 17:00:00 27,9 14,2 33,9 22,9 18,5 14 8 23 13 NNE 1015,0 18 60 0,0
25.06.2017 16:00:00 27,7 14,7 37,4 22,8 18,5 12 6 22 12 NNE 1015,5 18 60 0,0
25.06.2017 15:00:00 27,2 15,6 35,6 22,7 18,5 14 7 24 13 NNE 1015,8 20 60 0,0
25.06.2017 14:00:00 26,5 15,8 35,3 22,6 18,5 17 9 26 14 NNE 1016,3 19 60 0,0
25.06.2017 13:00:00 25,7 16,0 33,7 22,5 18,5 15 8 22 12 N 1016,9 18 60 0,0
25.06.2017 12:00:00 25,0 15,6 28,4 22,5 18,5 12 6 19 11 N 1017,4 19 56 0,0
25.06.2017 11:00:00 23,5 16,0 22,5 22,6 18,5 13 7 22 12 N 1017,9 18 32 0,0
25.06.2017 10:00:00 21,5 17,5 21,3 22,6 18,4 4 2 8 4 NE 1018,1 17 0 0,0
25.06.2017 09:00:00 21,2 18,2 19,6 22,7 18,4 0 0 5 3 N 1017,9 17 9 0,0
25.06.2017 08:00:00 19,4 17,9 18,4 22,7 18,4 4 2 8 4 SW 1017,6 13 0 0,0
25.06.2017 07:00:00 18,7 17,5 17,1 22,9 18,4 5 3 10 5 W 1017,4 13 0 0,0
25.06.2017 06:00:00 18,3 17,1 16,5 22,9 18,4 0 0 8 5 N 1017,6 9 0 0,0
25.06.2017 05:00:00 18,6 17,3 16,7 23,0 18,4 2 1 9 5 SSW 1017,2 9 0 0,0
25.06.2017 04:00:00 19,1 17,6 17,6 23,1 18,4 3 2 15 8 W 1017,7 11 0 0,0
25.06.2017 03:00:00 19,2 17,5 18,1 23,2 18,4 5 3 11 6 W 1017,9 14 0 0,0
25.06.2017 02:00:00 20,0 17,2 18,3 23,2 18,4 4 2 22 12 N 1017,7 8 0 0,8
25.06.2017 01:00:00 21,2 15,9 18,2 23,3 18,4 20 11 29 16 NE 1017,1 16 0 0,2
25.06.2017 00:00:00 24,0 16,5 19,5 23,3 18,4 21 12 32 17 N 1016,3 20 0 0,0
24.06.2017 23:00:00 22,8 17,7 19,7 23,4 18,4 9 5 14 7 W 1016,0 17 0 0,2
24.06.2017 22:00:00 23,8 19,1 20,8 23,3 18,3 0 0 6 3 N 1014,7 4,1 0 0,0
24.06.2017 21:00:00 23,6 19,5 22,3 23,3 18,3 0 0 9 5 N 1014,7 17 13 0,0
24.06.2017 20:00:00 25,9 20,0 25,3 23,3 18,4 6 3 9 5 SSW 1014,7 15 0 0,0
24.06.2017 19:00:00 28,5 19,2 29,3 23,2 18,3 6 4 9 5 N 1014,4 19 20 0,0
24.06.2017 18:00:00 30,0 17,5 36,1 23,0 18,3 8 4 17 9 NNE 1014,5 16 58 0,0
24.06.2017 17:00:00 30,0 18,4 36,9 22,9 18,3 8 4 18 10 N 1015,0 16 60 0,0
24.06.2017 16:00:00 29,4 18,8 40,8 22,8 18,3 12 6 19 10 N 1015,7 14 60 0,0
24.06.2017 15:00:00 29,0 18,7 39,0 22,7 18,3 8 4 17 9 NNE 1016,6 14 60 0,0
24.06.2017 14:00:00 28,3 18,7 38,7 22,6 18,3 11 6 16 9 NNE 1017,2 13 58 0,0
24.06.2017 13:00:00 26,7 18,6 32,4 22,6 18,3 6 4 14 8 NNW 1017,9 14 6 0,0
24.06.2017 12:00:00 25,9 18,3 26,7 22,6 18,3 9 5 18 10 NNE 1018,5 9 5 0,0
24.06.2017 11:00:00 24,7 18,2 24,9 22,6 18,3 14 7 20 11 NNE 1018,9 17 0 0,0
24.06.2017 10:00:00 24,1 18,1 24,9 22,6 18,3 11 6 16 9 NE 1019,1 15 0 0,0
24.06.2017 09:00:00 24,6 19,4 24,7 22,7 18,3 0 0 4 2 N 1019,0 13 0 0,0
24.06.2017 08:00:00 23,4 19,1 21,7 22,8 18,3 2 1 8 5 SSW 1019,0 12 0 0,0
24.06.2017 07:00:00 21,9 19,1 18,8 22,8 18,2 7 4 11 6 S 1019,0 12 0 0,0
24.06.2017 06:00:00 20,9 18,1 17,8 22,9 18,3 5 3 9 5 SW 1019,0 10 0 0,0
24.06.2017 05:00:00 21,7 17,9 18,4 23,0 18,2 3 2 9 5 W 1018,8 12 0 0,0
24.06.2017 04:00:00 22,4 18,4 19,6 23,1 18,3 5 3 14 7 S 1019,1 13 0 0,0
24.06.2017 03:00:00 23,2 19,4 20,4 23,2 18,2 4 2 11 6 S 1019,1 12 0 0,0
24.06.2017 02:00:00 24,3 19,1 22,2 23,2 18,2 6 4 12 7 S 1018,8 12 0 0,0
24.06.2017 01:00:00 25,8 19,4 23,2 23,3 18,2 8 5 16 8 ESE 1018,5 13 0 0,0
24.06.2017 00:00:00 26,5 19,6 23,4 23,3 18,2 6 4 20 11 E 1018,1 14 0 0,0
23.06.2017 23:00:00 27,6 20,4 24,3 23,3 18,2 14 8 27 15 NE 1017,4 13 0 0,0
23.06.2017 22:00:00 27,7 20,0 23,8 23,3 18,2 5 3 21 12 NE 1016,4 9 0 0,0
23.06.2017 21:00:00 28,5 19,4 25,9 23,3 18,2 10 5 16 8 SSE 1015,9 18 0 0,0
23.06.2017 20:00:00 30,0 20,8 29,4 23,2 18,2 6 3 12 7 S 1015,7 16 27 0,0
23.06.2017 19:00:00 33,5 19,2 35,2 23,1 18,2 5 3 13 7 NNW 1014,7 16 55 0,0
23.06.2017 18:00:00 34,1 17,3 38,0 23,0 18,2 10 5 22 12 N 1015,2 18 60 0,0
23.06.2017 17:00:00 34,4 17,2 40,9 22,8 18,2 15 8 22 12 N 1015,5 18 60 0,0
23.06.2017 16:00:00 33,9 17,6 43,3 22,6 18,2 13 7 19 11 N 1015,9 16 60 0,0
23.06.2017 15:00:00 32,5 19,7 44,7 22,5 18,2 10 5 14 7 N 1016,5 17 60 0,0
23.06.2017 14:00:00 32,1 20,7 45,4 22,4 18,1 8 4 12 6 N 1016,9 15 60 0,0
23.06.2017 13:00:00 30,4 20,0 39,9 22,3 18,1 9 5 15 8 N 1017,6 13 60 0,0
23.06.2017 12:00:00 30,5 18,9 36,0 22,2 18,1 9 5 17 9 N 1017,9 15 50 0,0
23.06.2017 11:00:00 29,0 18,5 33,2 22,2 18,1 4 2 14 8 S 1018,3 6 50 0,0
23.06.2017 10:00:00 27,6 17,5 26,4 22,3 18,1 5 3 11 6 SSW 1018,9 12 39 0,0
23.06.2017 09:00:00 25,1 17,6 26,1 22,3 18,1 7 4 16 9 SSW 1018,9 16 38 0,0
23.06.2017 08:00:00 24,2 18,2 21,0 22,4 18,1 5 3 9 5 S 1018,3 15 29 0,0
23.06.2017 07:00:00 21,3 18,1 17,4 22,5 18,1 3 2 7 4 SSW 1018,3 13 8 0,0
23.06.2017 06:00:00 20,4 17,6 17,6 22,5 18,1 4 2 10 5 S 1018,2 13 0 0,0
23.06.2017 05:00:00 22,3 17,7 18,5 22,7 18,1 7 4 16 9 SSW 1017,8 14 0 0,0
23.06.2017 04:00:00 21,8 18,4 17,5 22,7 18,1 7 4 11 6 SSW 1017,5 14 0 0,0
23.06.2017 03:00:00 21,6 18,2 17,2 22,8 18,0 3 1 8 4 SSW 1017,6 13 0 0,0
23.06.2017 02:00:00 21,5 18,3 18,0 22,9 18,1 2 1 6 3 SSW 1017,4 12 0 0,0
23.06.2017 01:00:00 22,4 18,2 18,5 22,9 18,1 3 2 6 3 WSW 1017,5 13 0 0,0
23.06.2017 00:00:00 23,8 18,2 18,9 23,0 18,1 5 3 8 4 WNW 1016,9 15 0 0,0
22.06.2017 23:00:00 24,8 18,5 20,1 23,0 18,0 5 3 8 4 S 1016,3 16 0 0,0
22.06.2017 22:00:00 26,5 18,6 21,4 23,0 18,0 3 2 5 3 NW 1015,4 17 3 0,0
22.06.2017 21:00:00 28,6 19,5 26,4 23,0 18,0 4 2 8 4 WSW 1014,7 18 15 0,0
22.06.2017 20:00:00 28,6 21,1 27,5 22,9 18,0 4 2 12 6 S 1014,6 17 8 0,0
22.06.2017 19:00:00 34,4 20,4 34,2 22,7 18,0 4 2 9 5 WSW 1013,6 17 46 0,0
22.06.2017 18:00:00 34,2 20,2 39,1 22,6 18,0 6 3 11 6 N 1014,0 19 57 0,0
22.06.2017 17:00:00 34,0 18,1 42,8 22,4 18,0 8 4 15 8 N 1014,3 18 60 0,0
22.06.2017 16:00:00 33,2 20,0 42,6 22,3 18,0 7 4 14 8 NNE 1014,6 17 60 0,0
22.06.2017 15:00:00 32,5 20,7 45,1 22,1 18,0 8 4 14 8 N 1014,9 15 60 0,0
22.06.2017 14:00:00 30,7 20,3 42,6 21,9 18,0 12 6 18 10 N 1015,7 15 60 0,0
22.06.2017 13:00:00 29,8 19,8 39,5 21,8 18,0 14 8 21 11 N 1016,1 14 60 0,0
22.06.2017 12:00:00 29,9 19,3 37,8 21,8 18,0 9 5 14 8 N 1016,4 17 60 0,0
22.06.2017 11:00:00 29,0 17,2 33,2 21,8 18,0 8 4 16 9 SSW 1016,7 37 60 0,0
22.06.2017 10:00:00 27,4 17,6 30,0 21,8 17,9 8 4 13 7 SSW 1017,0 16 60 0,0
22.06.2017 09:00:00 25,4 17,6 24,6 21,8 17,9 5 3 10 6 SSW 1017,1 13 60 0,0
22.06.2017 08:00:00 22,7 18,5 19,2 21,9 18,0 3 2 4 2 SSE 1017,0 13 60 0,0
22.06.2017 07:00:00 19,4 17,4 15,4 22,1 17,9 0 0 4 2 N 1017,1 10 10 0,0
22.06.2017 06:00:00 18,6 16,9 15,3 22,1 17,9 0 0 4 2 N 1016,9 7 0 0,0
22.06.2017 05:00:00 19,3 17,3 15,5 22,2 17,9 0 0 4 2 N 1016,6 13 0 0,0
22.06.2017 04:00:00 19,9 17,7 15,9 22,3 17,9 0 0 5 3 N 1016,6 13 0 0,0
22.06.2017 03:00:00 20,7 17,9 16,4 22,4 17,9 0 0 6 3 N 1016,5 10 0 0,0
22.06.2017 02:00:00 21,2 18,0 17,7 22,5 17,9 5 3 8 5 SSE 1016,3 15 0 0,0
22.06.2017 01:00:00 22,1 18,1 18,0 22,5 17,9 0 0 9 5 N 1016,2 16 0 0,0
22.06.2017 00:00:00 22,6 18,6 18,8 22,6 17,9 4 2 8 4 N 1015,8 17 0 0,0
21.06.2017 23:00:00 24,2 18,6 19,8 22,6 17,9 3 2 10 5 W 1015,5 16 0 0,0
21.06.2017 22:00:00 24,5 19,1 20,6 22,6 17,9 0 0 8 4 N 1015,0 8 0 0,0
21.06.2017 21:00:00 26,7 19,1 23,7 22,6 17,9 0 0 7 4 N 1014,1 17 0 0,0
21.06.2017 20:00:00 29,6 18,7 28,5 22,5 17,9 6 3 8 5 WNW 1013,4 19 43 0,0
21.06.2017 19:00:00 32,2 20,1 34,3 22,4 17,9 5 3 16 9 SSW 1012,8 17 60 0,0
21.06.2017 18:00:00 32,0 18,6 29,9 22,3 17,9 14 8 23 13 NE 1012,6 19 29 0,0
21.06.2017 17:00:00 30,5 18,6 31,6 22,1 17,8 5 3 18 10 NNW 1012,6 19 16 0,0
21.06.2017 16:00:00 32,3 19,5 37,8 22,0 17,9 13 7 19 10 N 1012,8 19 51 0,0
21.06.2017 15:00:00 31,5 19,5 43,4 21,8 17,9 16 9 22 12 N 1013,3 17 60 0,0
21.06.2017 14:00:00 30,5 18,2 42,7 21,7 17,8 11 6 20 11 N 1014,2 18 60 0,0
21.06.2017 13:00:00 29,0 17,8 41,7 21,6 17,8 8 4 12 7 N 1015,0 18 60 0,0
21.06.2017 12:00:00 28,9 15,8 37,0 21,5 17,8 4 2 11 6 NNW 1015,6 17 54 0,0
21.06.2017 11:00:00 27,4 16,7 33,7 21,5 17,8 5 3 10 5 N 1015,9 17 60 0,0
21.06.2017 10:00:00 25,8 17,2 31,7 21,5 17,8 4 2 13 7 NNW 1016,0 15 60 0,0
21.06.2017 09:00:00 25,0 17,5 25,1 21,6 17,8 2 1 6 3 ENE 1016,1 14 60 0,0
21.06.2017 08:00:00 22,7 17,6 19,0 21,7 17,8 0 0 5 3 N 1016,4 16 60 0,0
21.06.2017 07:00:00 19,5 16,5 14,5 21,7 17,8 3 1 4 2 E 1016,8 9 15 0,0
21.06.2017 06:00:00 18,1 15,7 14,4 21,8 17,8 0 0 8 4 N 1016,5 13 0 0,0
21.06.2017 05:00:00 18,4 16,2 15,1 21,9 17,8 5 3 8 5 S 1016,5 14 0 0,0
21.06.2017 04:00:00 18,8 16,2 15,3 22,0 17,8 2 1 7 4 NE 1016,5 14 0 0,0
21.06.2017 03:00:00 19,4 15,9 15,9 22,1 17,8 3 2 11 6 SE 1016,7 16 0 0,0
21.06.2017 02:00:00 19,7 16,3 16,4 22,2 17,8 4 2 7 4 SSE 1016,9 16 0 0,0
21.06.2017 01:00:00 21,5 16,2 16,9 22,3 17,8 3 2 7 4 SE 1016,5 18 0 0,0
21.06.2017 00:00:00 21,8 17,2 17,2 22,3 17,8 2 1 7 4 W 1016,6 17 0 0,0
20.06.2017 23:00:00 21,7 17,1 18,1 22,4 17,8 2 1 8 4 S 1016,4 19 0 0,0
20.06.2017 22:00:00 24,4 17,4 19,4 22,4 17,8 6 3 9 5 W 1016,0 19 0 0,0
20.06.2017 21:00:00 25,6 19,5 23,0 22,3 17,8 3 2 6 4 ESE 1015,4 20 0 0,0
20.06.2017 20:00:00 28,3 19,5 27,9 22,3 17,8 3 1 10 5 ENE 1014,7 32 0 0,0
20.06.2017 19:00:00 32,1 19,0 32,9 22,1 17,8 4 2 9 5 N 1014,2 18 60 0,0
20.06.2017 18:00:00 31,9 17,4 39,2 22,0 17,7 6 4 14 8 NNW 1014,7 19 60 0,0
20.06.2017 17:00:00 31,9 16,2 40,1 21,8 17,8 10 5 16 9 N 1015,1 19 60 0,0
20.06.2017 16:00:00 31,3 16,1 42,5 21,6 17,7 11 6 16 9 NNW 1015,6 18 60 0,0
20.06.2017 15:00:00 30,7 16,3 43,6 21,5 17,7 12 7 16 9 N 1016,1 16 60 0,0
20.06.2017 14:00:00 30,7 16,7 42,1 21,3 17,7 9 5 16 9 N 1016,7 19 60 0,0
20.06.2017 13:00:00 28,7 15,6 38,3 21,2 17,7 11 6 16 8 N 1017,5 19 60 0,0
20.06.2017 12:00:00 27,7 17,8 36,8 21,2 17,7 12 7 16 9 N 1018,2 18 60 0,0
20.06.2017 11:00:00 26,1 18,2 33,6 21,1 17,7 10 6 14 8 N 1018,4 16 60 0,0
20.06.2017 10:00:00 26,5 16,7 30,8 21,2 17,7 4 2 10 5 ESE 1018,3 0,4 60 0,0
20.06.2017 09:00:00 24,9 16,3 23,2 21,2 17,7 3 1 8 4 E 1018,7 9 60 0,0
20.06.2017 08:00:00 21,8 16,1 16,4 21,3 17,7 4 2 8 5 S 1019,2 14 60 0,0
20.06.2017 07:00:00 16,9 14,7 11,9 21,4 17,7 3 1 6 3 SSE 1019,7 16 11 0,0
20.06.2017 06:00:00 15,3 13,1 11,7 21,5 17,7 3 1 6 3 S 1019,9 13 0 0,0
20.06.2017 05:00:00 16,8 14,3 12,1 21,6 17,7 0 0 4 2 N 1019,8 16 0 0,0
20.06.2017 04:00:00 17,4 14,9 12,4 21,7 17,7 3 1 5 3 SSE 1019,7 18 0 0,0
20.06.2017 03:00:00 18,2 14,7 13,9 21,8 17,7 4 2 5 3 S 1019,7 19 0 0,0
20.06.2017 02:00:00 19,1 15,0 14,5 21,9 17,7 3 2 5 3 W 1019,5 19 0 0,0
20.06.2017 01:00:00 20,0 14,8 15,3 22,0 17,7 3 1 5 3 W 1019,2 19 0 0,0
20.06.2017 00:00:00 20,2 15,4 16,1 22,1 17,7 0 0 6 4 N 1019,0 19 0 0,0
19.06.2017 23:00:00 22,7 15,8 17,0 22,1 17,6 0 0 6 3 N 1018,3 20 0 0,0
19.06.2017 22:00:00 23,6 15,9 18,6 22,1 17,7 0 0 10 5 N 1017,9 13 0 0,0
19.06.2017 21:00:00 24,2 17,0 21,7 22,1 17,6 8 4 11 6 S 1017,3 20 0 0,0
19.06.2017 20:00:00 28,5 17,4 26,8 22,0 17,6 7 4 19 10 SSW 1016,7 19 49 0,0
19.06.2017 19:00:00 31,3 16,9 32,5 21,9 17,6 9 5 19 11 SW 1016,4 19 60 0,0

tt = Température de l'air
td = dewpoint
tt 5cm = Température de l'air 5cm
tt -20cm = Température de l'air -20cm
tt -100cm = Température de l'air -100cm
ff = Vitesse du vent
fx = gusts
dd = Direction du vent
ppp = reduced air pressure
vv = visibility
sd = Ensoleillement
rr = Quantités de précipitations

stations d'obs. à proximité